Regional Weather Roundup
Issued by NWS Nashville, TN

Home | Current Version | Previous Version | Text Only | Print | Product List | Glossary On
Versions: 1 2 3 4 5 6 7 8 9 10 11 12 13 14 15 16 17 18 19 20 21 22 23 24 25 26 27 28 29 30 31 32 33 34 35 36 37 38 39 40 41 42 43 44 45 46 47 48 49 50
000
ASUS44 KOHX 111710
RWROHX
MIDDLE TENNESSEE HOURLY WEATHER ROUNDUP
NATIONAL WEATHER SERVICE NASHVILLE TN
1100 AM CST THU FEB 11 2016

NOTE: "FAIR" INDICATES FEW OR NO CLOUDS BELOW 12,000 FEET WITH
NO SIGNIFICANT WEATHER AND/OR OBSTRUCTIONS TO VISIBILITY.

* THESE REPORTS ARE NOT UNDER NWS QUALITY CONTROL AND MAY NOT
  REPORT WEATHER SUCH AS PRECIPITATION AND FOG.


TNZ005>011-023>034-057-059-062>066-078-080-111800
...NORTHERN MIDDLE TENNESSEE...

CITY           SKY/WX    TMP DP  RH WIND       PRES   REMARKS
CLARKSVILLE    SUNNY     32  22  66 NE5       30.29R WCI  27
CROSSVILLE     SUNNY     32  19  58 NE5       30.19R WCI  27
DICKSON        SUNNY     30  21  69 E8        30.23R WCI  23
LEBANON        SUNNY     34  22  61 N6        30.24F WCI  29
NASHVILLE      MOSUNNY   35  22  58 NE5       30.27S WCI  31
PORTLAND       SUNNY    N/A N/A N/A NE7       30.25S
ROCKWOOD       SUNNY     31  19  61 CALM      30.19S
SMYRNA         SUNNY     35  25  67 N7        30.28S WCI  29
SPARTA         SUNNY     36  19  51 N8        30.22S WCI  29
$$
TNZ056-058-060-061-075>077-079-093>097-111800
...SOUTHERN MIDDLE TENNESSEE...

CITY           SKY/WX    TMP DP  RH WIND       PRES   REMARKS
COLUMBIA       SUNNY     37  25  60 E9        30.20S WCI  31
FAYETTEVILLE   SUNNY     43  18  36 N8        30.17F
LEWISBURG      SUNNY     37  20  50 NE9       30.22R WCI  30
MCMINNVILLE    CLOUDY    34  23  64 NE8       30.22S WCI  27
SHELBYVILLE    SUNNY     37  25  60 E8        30.23S WCI  31
TULLAHOMA      SUNNY     37  21  52 NE7       30.20S WCI  32
WINCHESTER     SUNNY     41  19  42 VRB3      30.19F
$$


...KEY TO REMARKS...
VSB - VISIBILITY IN MILES
WCI - WIND CHILL INDEX
HX  - HEAT INDEX





USA.gov is the U.S. government's official web portal to all federal, state and local government web resources and services.